Simultaneous Nadir Overpasses (SNOs) Predictions

Prediction of SNOs between GOES-14 and NPP Satellite Orbit:

Table of predicted SNOs for the next 14.0 days since TLE Epoch: 8/26/2022
Index Date Time (GOES-14) GOES-14 Lat,Lon NPP Lat,Lon Distance(km) Time Diff (sec)
1 08/27/2022 08:12:24 -0.49,-104.42 -0.96,-102.22 250.10 80
2 08/28/2022 20:34:23 0.50,-104.62 -0.17,-107.54 333.13 80
3 08/29/2022 20:18:19 0.50,-104.62 0.88,-103.01 183.99 80
4 08/31/2022 08:40:06 -0.50,-104.44 0.37,-108.27 436.87 80
5 09/01/2022 08:18:43 -0.50,-104.43 -0.68,-103.75 78.02 80
6 09/03/2022 20:24:37 0.51,-104.60 0.55,-104.54 8.02 80
7 09/06/2022 08:27:41 -0.52,-104.42 -0.35,-105.27 96.16 80
8 09/07/2022 08:06:16 -0.52,-104.41 -1.34,-100.74 418.11 80
9 09/08/2022 20:28:13 0.53,-104.55 0.17,-106.05 170.52 80
